User: anonymous   Login
Location: Unspecified
(20.0000°S, 0.0000°E)
Time: 22:27:20
(UTC+00:00)
Language:

NUDT-PHONESAT - Orbit

View from above orbital plane
View from above orbital plane
View from above satellite
View from above satellite

Ground track
Ground track

The orbit data is extracted from the following two-line orbital elements,

1 40900U 15049B   20216.86021013  .00001562  00000-0  66833-4 0  9998
2 40900  97.4296 227.4031 0012491 169.0724 313.7592 15.24260557270418
Epoch (UTC): 03 August 2020 20:38:42
Eccentricity: 0.0012491
inclination: 97.4296°
perigee height: 484 km
apogee height: 501 km
right ascension of ascending node: 227.4031°
argument of perigee: 169.0724°
revolutions per day: 15.24260557
mean anomaly at epoch: 313.7592°
orbit number at epoch: 27041

The dashed part of the orbit path shows where the satellite is in the earth's shadow,  

DLR